Starlink 36198

operational
NORAD ID: 67167 Int'l Des: 2025-303 Owner: SPXS Country: US Constellation: starlink
LEOCIRCULAR

Über Starlink 36198

Beschreibung wird geladen...

Live-Position

3D-Globus wird geladen...

Nächste Überflüge

Höhenverlauf

Altitude vs Time

uPlot chart will show altitude changes over time

Zweizeiliger Elementsatz

1 67167C 25303E 25352.76715278 .00674420 00000+0 99777-3 0 3527
2 67167 43.0046 61.7868 0007388 288.8581 257.6077 16.03212033 14
Epoch: 18. Dez. 2025 • Age: 44 hours

Aktueller Status

Höhe 263.3 km
Geschwindigkeit 7.75 km/s
Subsatellitenpunkt 0.79°N, 151.2°W
Startdatum 17. Dez. 2025
Alter 2 days
Typ internet

Technische Details

Klassifizierung Payload
Masse 575.00 kg
Trockenmasse 530.00 kg
Gesamtmasse 575.00 kg
Länge 0.30 m
Durchmesser 4.10 m
Spannweite 29.00 m
Form Box + pan
Hersteller SPXS
Bus-Typ Starlink V2MO
Phasenstatus In Orbit
Besitzer/Staat SPXS/US

Große Konstellationen

Loading constellations...